Dunkirk, NY
on Friday, December 8, 2017

Friday
       
Previous Day Next Day
Daily Summary
 ActualAverageRecord
Temperature
Mean Temperature °F °C °F °C  
Max Temperature 30°F -1°C 40°F 4°C 69°F 20°C (1966)
Min Temperature 24°F -4°C 28°F -2°C 8°F -13°C (1976)
Degree Days
Heating Degree Days 38    
Moisture
Dew Point 18°F -8°C   
Average Humidity 74    
Maximum Humidity 96    
Minimum Humidity 45    
Precipitation
Precipitation 0.04 in / 1.02 cm in / cm in / cm ()
Wind
Wind Speed 15 mph / 24 km/h   
Max Wind Speed 18 mph / 29 km/h   
Max Gust Speed 26 mph / 42 km/h   
Visibility 6 miles / 9 kilometers   
Events Fog , Snow   
Averages and records for this station are not official NWS values.
Key: T is trace of precipitation, MM is missing value
Source: NWS Daily Summary
Seasonal Weather Averages
Time(EST)TemperatureDew PointHumidity Pressure Visibility Wind DirectionWind SpeedGust SpeedPrecipitationEvents Conditions
12:06 AM 26.1°F -3.3°C 23.0°F -5.0°C 88% 29.99 in / 1015.5 hPa 3.0 miles / 4.8 kilometers SW 13.8 mph / 22.2 km/h - 0.00 in / 0.0 cm Snow Light Snow
12:17 AM 26.1°F -3.3°C 23.0°F -5.0°C 88% 29.98 in / 1015.1 hPa 1.8 miles / 2.8 kilometers SW 15.0 mph / 24.1 km/h 23.0 mph / 37.0 km/h 0.00 in / 0.0 cm Snow Light Snow
12:21 AM 26.1°F -3.3°C 23.0°F -5.0°C 88% 29.98 in / 1015.1 hPa 0.8 miles / 1.2 kilometers SW 15.0 mph / 24.1 km/h 23.0 mph / 37.0 km/h 0.00 in / 0.0 cm Snow Light Snow
12:34 AM 25.0°F -3.9°C 24.1°F -4.4°C 96% 29.98 in / 1015.1 hPa 0.2 miles / 0.4 kilometers SW 15.0 mph / 24.1 km/h 19.6 mph / 31.5 km/h 0.01 in / 0.3 cm Fog , Snow Heavy Snow
12:50 AM 24.8°F -4.0°C 23.0°F -5.0°C 93% 29.98 in / 1015.1 hPa 0.5 miles / 0.8 kilometers SW 17.3 mph / 27.8 km/h 23.0 mph / 37.0 km/h 0.01 in / 0.3 cm Fog , Snow Snow
12:53 AM 25.0°F -3.9°C 23.0°F -5.0°C 92% 30.00 in / 1015.9 hPa 0.5 miles / 0.8 kilometers SSW 16.1 mph / 25.9 km/h - 0.01 in / 0.3 cm Fog , Snow Snow
1:10 AM 25.0°F -3.9°C 24.1°F -4.4°C 96% 29.98 in / 1015.1 hPa 0.5 miles / 0.8 kilometers SW 12.7 mph / 20.4 km/h 25.3 mph / 40.7 km/h 0.01 in / 0.3 cm Fog , Snow Snow
1:39 AM 25.0°F -3.9°C 24.1°F -4.4°C 96% 29.97 in / 1014.8 hPa 1.2 miles / 2.0 kilometers SSW 15.0 mph / 24.1 km/h - 0.02 in / 0.5 cm Snow Light Snow
1:48 AM 24.8°F -4.0°C 23.0°F -5.0°C 93% 29.97 in / 1014.8 hPa 3.0 miles / 4.8 kilometers SSW 15.0 mph / 24.1 km/h - 0.02 in / 0.5 cm Snow Light Snow
1:53 AM 25.0°F -3.9°C 23.0°F -5.0°C 92% 30.00 in / 1015.9 hPa 5.0 miles / 8.0 kilometers SSW 15.0 mph / 24.1 km/h - 0.02 in / 0.5 cm Snow Light Snow
2:42 AM 25.0°F -3.9°C 21.0°F -6.1°C 85% 29.99 in / 1015.5 hPa 2.0 miles / 3.2 kilometers SSW 16.1 mph / 25.9 km/h - 0.00 in / 0.0 cm Snow Light Snow
2:50 AM 24.8°F -4.0°C 21.2°F -6.0°C 86% 30.00 in / 1015.8 hPa 1.8 miles / 2.8 kilometers SW 16.1 mph / 25.9 km/h - 0.00 in / 0.0 cm Snow Light Snow
2:53 AM 25.0°F -3.9°C 21.0°F -6.1°C 85% 30.03 in / 1016.7 hPa 1.8 miles / 2.8 kilometers SSW 15.0 mph / 24.1 km/h - 0.00 in / 0.0 cm Snow Light Snow
3:25 AM 24.1°F -4.4°C 21.9°F -5.6°C 91% 30.01 in / 1016.1 hPa 1.0 miles / 1.6 kilometers SSW 16.1 mph / 25.9 km/h - 0.00 in / 0.0 cm Snow Light Snow
3:34 AM 24.1°F -4.4°C 21.9°F -5.6°C 91% 30.01 in / 1016.1 hPa 1.2 miles / 2.0 kilometers SSW 13.8 mph / 22.2 km/h - 0.00 in / 0.0 cm Snow Light Snow
3:46 AM 24.1°F -4.4°C 21.9°F -5.6°C 91% 30.00 in / 1015.8 hPa 2.0 miles / 3.2 kilometers SSW 16.1 mph / 25.9 km/h - 0.00 in / 0.0 cm Snow Light Snow
3:53 AM 24.1°F -4.4°C 21.0°F -6.1°C 88% 30.03 in / 1016.8 hPa 3.0 miles / 4.8 kilometers SSW 12.7 mph / 20.4 km/h - 0.00 in / 0.0 cm Snow Light Snow
4:00 AM 24.1°F -4.4°C 21.0°F -6.1°C 88% 30.00 in / 1015.8 hPa 6.0 miles / 9.7 kilometers SSW 13.8 mph / 22.2 km/h - 0.00 in / 0.0 cm Snow Light Snow
4:53 AM 24.1°F -4.4°C 19.0°F -7.2°C 81% 30.04 in / 1017.0 hPa 3.0 miles / 4.8 kilometers SSW 15.0 mph / 24.1 km/h - 0.00 in / 0.0 cm Snow Light Snow
5:06 AM 24.1°F -4.4°C 19.0°F -7.2°C 81% 30.00 in / 1015.8 hPa 6.0 miles / 9.7 kilometers SSW 13.8 mph / 22.2 km/h 21.9 mph / 35.2 km/h 0.00 in / 0.0 cm Snow Light Snow
5:53 AM 24.1°F -4.4°C 18.0°F -7.8°C 77% 30.02 in / 1016.4 hPa 10.0 miles / 16.1 kilometers SSW 13.8 mph / 22.2 km/h - 0.00 in / 0.0 cm   Overcast
6:53 AM 24.1°F -4.4°C 17.1°F -8.3°C 75% 30.01 in / 1016.3 hPa 10.0 miles / 16.1 kilometers SSW 15.0 mph / 24.1 km/h - 0.00 in / 0.0 cm   Overcast
7:53 AM 24.1°F -4.4°C 15.1°F -9.4°C 69% 30.01 in / 1016.3 hPa 9.0 miles / 14.5 kilometers SSW 17.3 mph / 27.8 km/h - 0.01 in / 0.3 cm   Overcast
8:53 AM 24.1°F -4.4°C 15.1°F -9.4°C 69% 30.03 in / 1016.8 hPa 3.0 miles / 4.8 kilometers South 18.4 mph / 29.6 km/h 26.5 mph / 42.6 km/h N/A   Haze
9:00 AM 24.1°F -4.4°C 15.1°F -9.4°C 69% 30.00 in / 1015.8 hPa 2.0 miles / 3.2 kilometers SSW 17.3 mph / 27.8 km/h - N/A   Haze
9:09 AM 24.1°F -4.4°C 15.1°F -9.4°C 69% 30.00 in / 1015.8 hPa 10.0 miles / 16.1 kilometers SSW 18.4 mph / 29.6 km/h 24.2 mph / 38.9 km/h N/A   Overcast
9:53 AM 24.1°F -4.4°C 15.1°F -9.4°C 69% 30.03 in / 1016.8 hPa 10.0 miles / 16.1 kilometers SSW 17.3 mph / 27.8 km/h 24.2 mph / 38.9 km/h N/A   Overcast
10:53 AM 25.0°F -3.9°C 14.0°F -10.0°C 63% 30.04 in / 1017.3 hPa 9.0 miles / 14.5 kilometers SSW 18.4 mph / 29.6 km/h 26.5 mph / 42.6 km/h N/A   Partly Cloudy
11:53 AM 27.0°F -2.8°C 12.9°F -10.6°C 56% 30.02 in / 1016.4 hPa 10.0 miles / 16.1 kilometers SW 15.0 mph / 24.1 km/h 21.9 mph / 35.2 km/h N/A   Clear
12:53 PM 28.0°F -2.2°C 10.9°F -11.7°C 49% 29.97 in / 1014.7 hPa 10.0 miles / 16.1 kilometers SW 16.1 mph / 25.9 km/h - N/A   Clear
1:53 PM 28.9°F -1.7°C 10.9°F -11.7°C 47% 29.95 in / 1014.1 hPa 10.0 miles / 16.1 kilometers SSW 15.0 mph / 24.1 km/h 23.0 mph / 37.0 km/h N/A   Clear
2:53 PM 30.0°F -1.1°C 10.9°F -11.7°C 45% 29.93 in / 1013.4 hPa 10.0 miles / 16.1 kilometers SSW 15.0 mph / 24.1 km/h - N/A   Clear
3:53 PM 28.9°F -1.7°C 12.0°F -11.1°C 49% 29.92 in / 1013.2 hPa 10.0 miles / 16.1 kilometers SW 11.5 mph / 18.5 km/h - N/A   Clear
4:53 PM 28.0°F -2.2°C 10.9°F -11.7°C 49% 29.94 in / 1013.9 hPa 10.0 miles / 16.1 kilometers SSW 11.5 mph / 18.5 km/h - N/A   Clear
5:53 PM 26.1°F -3.3°C 10.9°F -11.7°C 53% 29.96 in / 1014.6 hPa 10.0 miles / 16.1 kilometers SW 11.5 mph / 18.5 km/h - N/A   Clear
6:53 PM 25.0°F -3.9°C 12.0°F -11.1°C 58% 29.95 in / 1014.2 hPa 10.0 miles / 16.1 kilometers SSW 12.7 mph / 20.4 km/h - N/A   Clear
7:53 PM 25.0°F -3.9°C 12.0°F -11.1°C 58% 29.95 in / 1014.2 hPa 10.0 miles / 16.1 kilometers South 12.7 mph / 20.4 km/h - N/A   Mostly Cloudy
8:53 PM 26.1°F -3.3°C 12.9°F -10.6°C 58% 29.95 in / 1014.2 hPa 10.0 miles / 16.1 kilometers SSW 15.0 mph / 24.1 km/h - N/A   Overcast
9:53 PM 26.1°F -3.3°C 14.0°F -10.0°C 60% 29.95 in / 1014.0 hPa 10.0 miles / 16.1 kilometers South 16.1 mph / 25.9 km/h - N/A   Overcast
10:53 PM 26.1°F -3.3°C 14.0°F -10.0°C 60% 29.94 in / 1013.8 hPa 10.0 miles / 16.1 kilometers SSW 11.5 mph / 18.5 km/h - N/A   Overcast
11:53 PM 25.0°F -3.9°C 12.9°F -10.6°C 60% 29.94 in / 1013.6 hPa 10.0 miles / 16.1 kilometers South 10.4 mph / 16.7 km/h - N/A   Overcast